Regional Weather Roundup
Issued by NWS

Home | Current Version | Previous Version | Text Only | Print | Product List | Glossary Off
Versions: 1 2 3 4 5 6 7 8 9 10 11 12 13 14 15 16 17 18 19 20 21 22 23 24 25 26 27 28 29 30 31 32 33 34 35 36 37 38 39 40 41 42 43 44 45 46 47 48 49 50

000
ASUS45 KBOI 162210
RWRID
WEATHER ROUNDUP FOR IDAHO
NATIONAL WEATHER SERVICE BOISE ID
400 PM MDT TUE SEP 16 2014

NOTE: "FAIR" INDICATES FEW OR NO CLOUDS BELOW 12000 FEET
WITH NO SIGNIFICANT WEATHER AND/OR OBSTRUCTIONS TO VISIBILITY

IDZ012-014-162300-
SOUTHWEST IDAHO


CITY           SKY/WX    TMP DP  RH WIND       PRES   REMARKS
BOISE          SUNNY     92  43  18 N6        29.88F
CALDWELL       SUNNY     90  50  25 E7        29.88F
MOUNTAIN HOME  MOSUNNY   91  36  14 VRB2      29.89F
$$

IDZ016-017-162300-
SOUTHCENTRAL IDAHO


CITY           SKY/WX    TMP DP  RH WIND       PRES   REMARKS
BURLEY         MOSUNNY   87  40  19 E5        29.96F
JEROME         SUNNY     87  44  22 NW5       29.97F
TWIN FALLS     SUNNY     88  42  20 NW8       29.97F
$$

IDZ019>023-162300-
SOUTHEAST IDAHO


CITY           SKY/WX    TMP DP  RH WIND       PRES   REMARKS
IDAHO FALLS    MOSUNNY   86  35  16 NE6       30.04F
POCATELLO      MOSUNNY   91  38  15 N8        30.00F
REXBURG        MOSUNNY   81  34  18 CALM      30.05F
$$

IDZ006-010-011-018-031-032-162300-
CENTRAL IDAHO MOUNTAINS


CITY           SKY/WX    TMP DP  RH WIND       PRES   REMARKS
MCCALL         MOSUNNY   78  44  29 S13       30.04F
HAILEY         MOSUNNY   81  43  26 E15       30.07F
STANLEY          N/A     77  40  26 NW5       30.13F
SALMON         MOSUNNY   70  43  37 N3        30.01F
CHALLIS        MOSUNNY   81  39  22 CALM      30.04F
$$

IDZ002-004-006-007-026-162300-
NORTHERN IDAHO


CITY           SKY/WX    TMP DP  RH WIND       PRES   REMARKS
LEWISTON       MOSUNNY   88  38  17 VRB3      29.80F
LOWELL           N/A     82  54  37 CALM      29.80F
COEUR D`ALENE  PTSUNNY   81  41  24 NE5       29.86F
MULLAN PASS    PTSUNNY   68  37  32 VRB5      30.09F
$$



USA.gov is the U.S. government's official web portal to all federal, state and local government web resources and services.